[[{"header":{"parameterUnit":"m.s-1","parameterCategory":1,"la1":30.2991,"la2":30.254,"lo1":-89.0895,"lo2":-89.0444,"dy":0.0017,"dx":0.0017,"nx":28,"ny":28,"refTime":"2025-04-22T21:00:00:Z","depth":0,"parameterNumber":2,"parameterNumberName":"U-component_of_WINDS"},"data":[0,0,0,0,0,0,0,0,0,0,0,0,0,0,0,0,0,0,0,0,0,0,0,0,0,0,0,0,0,0,0,0,0,0,0,0,0,0,0,0,0,0,0,0,0,0,0,0,0,0,0,0,0,0,0,0,0,0,-1.57,-1.57,0,-1.5736,-1.5737,-1.5737,-1.5704,-1.5703,-1.5702,-1.57,-1.5739,-1.5742,-1.5744,0,0,0,0,0,0,0,0,0,0,0,0,0,-1.5602,-1.5604,-1.5699,-1.57,-1.57,-1.5736,-1.5737,-1.5737,-1.5704,-1.5703,-1.5701,-1.57,-1.5739,-1.5741,-1.5744,0,0,0,0,0,0,0,0,0,0,0,0,0,-1.5642,-1.5604,-1.5699,-1.5688,-1.5688,-1.5736,-1.5737,-1.5738,-1.5705,-1.5703,-1.5701,-1.5699,-1.5738,-1.5741,-1.5744,-1.5806,0,0,-1.5755,-1.5756,0,0,0,0,0,0,0,0,-1.564,-1.5646,-1.5689,-1.5689,-1.5689,-1.5714,-1.5717,-1.5761,-1.5705,-1.5698,-1.57,-1.5698,-1.5732,-1.5736,-1.5748,-1.5808,-1.581,-1.5755,-1.5757,-1.5759,-1.576,0,0,0,0,0,0,0,-1.5637,-1.5644,-1.5714,-1.569,-1.569,-1.5682,-1.5685,-1.5725,-1.5726,-1.5699,-1.5696,-1.5701,-1.5732,-1.5744,-1.5748,-1.581,-1.5755,-1.5758,-1.576,-1.5762,-1.5924,-1.5926,0,0,0,0,0,0,-1.5635,-1.5642,-1.5713,-1.5715,-1.5659,-1.5685,-1.5689,-1.5708,-1.5726,-1.5727,-1.5703,-1.57,-1.574,-1.5744,-1.575,-1.5823,-1.5759,-1.5762,-1.5764,-1.5922,-1.5924,-1.5927,0,0,0,0,0,0,-1.5633,-1.5642,-1.5711,-1.5678,-1.5686,-1.5689,-1.571,-1.5709,-1.5722,-1.5729,-1.5729,-1.5715,-1.5738,-1.5745,-1.5792,-1.5824,-1.5764,-1.5767,-1.5919,-1.5922,-1.5926,-1.5971,0,0,0,0,0,0,-1.5631,-1.5641,-1.5665,-1.5679,-1.5688,-1.5753,-1.5712,-1.5712,-1.5728,-1.5724,-1.5741,-1.5742,-1.5737,-1.5787,-1.5796,-1.5828,-1.5769,-1.5916,-1.5921,-1.5924,-1.5967,-1.5976,-1.5983,0,0,0,0,0,-1.5627,-1.5676,-1.5666,-1.5675,-1.5717,-1.5755,-1.5761,-1.5754,-1.5731,-1.5754,-1.5759,-1.5741,-1.5819,-1.5793,-1.5802,-1.5835,-1.5914,-1.5919,-1.5924,-1.5963,-1.5974,-1.5983,0,0,0,0,0,0,-1.5666,-1.5678,-1.5667,-1.5721,-1.5738,-1.575,-1.5779,-1.5766,-1.5789,-1.5784,-1.5776,-1.578,-1.583,-1.5837,-1.5807,-1.5896,-1.5863,-1.587,-1.589,-1.59,-1.5908,-1.5905,-1.5772,0,0,0,0,0,-1.5681,-1.5711,-1.5719,-1.5767,-1.5776,-1.5776,-1.5793,-1.5786,-1.5803,-1.5809,-1.5817,-1.5834,-1.5863,-1.5882,-1.5908,-1.5968,-1.5971,-1.5996,-1.6004,-1.6011,-1.6017,-1.6049,-1.606,-1.5943,-1.5943,-1.5943,0,0,-1.5712,-1.5722,-1.5741,-1.5775,-1.5787,-1.5818,-1.5782,-1.5817,-1.584,-1.5815,-1.586,-1.5867,-1.5885,-1.5939,-1.5963,-1.5947,-1.605,-1.6017,-1.6022,-1.6025,-1.6055,-1.6066,-1.6076,-1.5947,-1.5946,-1.5946,0,0,-1.5785,-1.5795,-1.5836,-1.5849,-1.5867,-1.5867,-1.5877,-1.5891,-1.5894,-1.594,-1.5922,-1.5949,-1.5999,-1.6013,-1.6026,-1.6105,-1.609,-1.6114,-1.6157,-1.6188,-1.6197,-1.6206,-1.6234,-1.6244,-1.612,-1.612,-1.612,0,-1.5821,-1.5867,-1.5859,-1.5895,-1.591,-1.5889,-1.593,-1.5943,-1.5969,-1.5981,-1.5962,-1.6023,-1.6034,-1.6091,-1.6111,-1.6122,-1.6134,-1.6112,-1.6197,-1.6205,-1.6212,-1.6239,-1.625,-1.6123,-1.6123,-1.6122,-1.6122,0,-1.5911,-1.5944,-1.5974,-1.6,-1.6019,-1.6058,-1.6056,-1.6076,-1.6068,-1.607,-1.6117,-1.613,-1.6159,-1.6172,-1.6164,-1.6228,-1.6217,-1.6198,-1.6164,-1.6226,-1.6251,-1.6262,-1.6127,-1.6126,-1.6125,-1.6124,0,0,-1.6009,-1.603,-1.6041,-1.6052,-1.6071,-1.6096,-1.6134,-1.6162,-1.618,-1.6199,-1.6231,-1.6273,-1.6255,-1.6271,-1.6265,-1.6293,-1.6355,-1.627,-1.627,-1.6285,-1.6426,-1.644,-1.6452,-1.6345,-1.6347,-1.6348,-1.6424,0,-1.6082,-1.6148,-1.6142,-1.6204,-1.6234,-1.6214,-1.6247,-1.6263,-1.6266,-1.6292,-1.6296,-1.6326,-1.63,-1.631,-1.6336,-1.6341,-1.6383,-1.6336,-1.6375,-1.6376,-1.637,-1.6465,-1.648,-1.6551,-1.6434,-1.6435,-1.6437,0,-1.6176,-1.6198,-1.6264,-1.6278,-1.629,-1.632,-1.6345,-1.6371,-1.6388,-1.6388,-1.6406,-1.6396,-1.6434,-1.64,-1.6454,-1.6422,-1.6438,-1.6443,-1.6445,-1.6449,-1.641,-1.6471,-1.6574,-1.6585,-1.6452,-1.6451,-1.645,0,-1.6241,-1.6287,-1.6332,-1.6343,-1.636,-1.6382,-1.6391,-1.6406,-1.6423,-1.6445,-1.6457,-1.6483,-1.6498,-1.6519,-1.6517,-1.6492,-1.6571,-1.6537,-1.6573,-1.6573,-1.6591,-1.659,-1.6698,-1.6601,-1.6601,-1.6601,-1.66,0,-1.6324,-1.6364,-1.6361,-1.6389,-1.6434,-1.6427,-1.6472,-1.6479,-1.6492,-1.6521,-1.6506,-1.6534,-1.6528,-1.6556,-1.6555,-1.6599,-1.6606,-1.6608,-1.6607,-1.6609,-1.6609,-1.6619,-1.6614,-1.6603,-1.6603,-1.6602,-1.6602,0,-1.6404,-1.6403,-1.6451,-1.6464,-1.6468,-1.6501,-1.6512,-1.6539,-1.6541,-1.6578,-1.6586,-1.659,-1.6622,-1.6621,-1.6658,-1.6656,-1.6711,-1.6705,-1.6706,-1.6704,-1.6741,-1.6737,-1.6859,-1.6875,-1.6768,-1.6769,-1.677,0,-1.6456,-1.6487,-1.6503,-1.6521,-1.6531,-1.6561,-1.6578,-1.6573,-1.6592,-1.6614,-1.6638,-1.6668,-1.6692,-1.6744,-1.675,-1.6778,-1.6772,-1.6813,-1.6776,-1.6778,-1.6773,-1.6771,-1.6774,-1.682,-1.6821,-1.6822,-1.6823,0,-1.655,-1.6548,-1.6573,-1.6599,-1.662,-1.6641,-1.6659,-1.6675,-1.6672,-1.6694,-1.6726,-1.6745,-1.6782,-1.6812,-1.6839,-1.6849,-1.6836,-1.6835,-1.6845,-1.6847,-1.6846,-1.6847,-1.6725,-1.6832,-1.6831,-1.683,-1.683,-1.6829,-1.6617,-1.6644,-1.6659,-1.6689,-1.6702,-1.672,-1.6745,-1.6751,-1.6777,-1.6807,-1.6802,-1.6838,-1.6855,-1.689,-1.6902,-1.693,-1.6916,-1.693,-1.6934,-1.6938,-1.6942,-1.6842,-1.6935,-1.6935,-1.6935,-1.6935,-1.6934,0,-1.671,-1.6719,-1.6746,-1.6772,-1.6795,-1.6781,-1.68,-1.6821,-1.6853,-1.687,-1.6893,-1.6931,-1.6961,-1.6969,-1.6998,-1.7019,-1.7014,-1.7027,-1.7025,-1.7028,-1.6953,-1.6941,-1.7031,-1.7031,-1.7031,-1.7031,-1.7031,-1.7031,-1.6761,-1.6805,-1.6805,-1.6856,-1.6865,-1.69,-1.6913,-1.6929,-1.6942,-1.6985,-1.7009,-1.7014,-1.7028,-1.7058,-1.7085,-1.7086,-1.7098,-1.7113,-1.7113,-1.7043,-1.7033,-1.7024,-1.7013,-1.7116,-1.7116,-1.7185,-1.7186,-1.7186]},{"header":{"parameterUnit":"m.s-1","parameterCategory":1,"la1":30.2991,"la2":30.254,"lo1":-89.0895,"lo2":-89.0444,"dy":0.0017,"dx":0.0017,"nx":28,"ny":28,"refTime":"2025-04-22T21:00:00:Z","depth":0,"parameterNumber":3,"parameterNumberName":"V-component_of_WINDS"},"data":[0,0,0,0,0,0,0,0,0,0,0,0,0,0,0,0,0,0,0,0,0,0,0,0,0,0,0,0,0,0,0,0,0,0,0,0,0,0,0,0,0,0,0,0,0,0,0,0,0,0,0,0,0,0,0,0,0,0,0.6338,0.6338,0,0.6321,0.632,0.632,0.6292,0.6292,0.6291,0.6291,0.6272,0.6272,0.6272,0,0,0,0,0,0,0,0,0,0,0,0,0,0.6348,0.6348,0.6338,0.6338,0.6338,0.6321,0.632,0.632,0.6292,0.6292,0.6291,0.6291,0.6272,0.6272,0.6272,0,0,0,0,0,0,0,0,0,0,0,0,0,0.6338,0.6348,0.6338,0.6322,0.632,0.6321,0.632,0.632,0.6292,0.6292,0.6291,0.629,0.6272,0.6272,0.6272,0.6287,0,0,0.6272,0.6272,0,0,0,0,0,0,0,0,0.6339,0.6338,0.6325,0.6323,0.6321,0.6308,0.6317,0.6309,0.6293,0.6303,0.6291,0.629,0.6284,0.6283,0.6282,0.6286,0.6285,0.6272,0.6272,0.6272,0.6272,0,0,0,0,0,0,0,0.6339,0.6338,0.6331,0.6324,0.6322,0.6315,0.6313,0.6315,0.6298,0.6302,0.63,0.6298,0.6283,0.6282,0.6281,0.6285,0.6272,0.6272,0.6272,0.6272,0.6301,0.6302,0,0,0,0,0,0,0.6343,0.6339,0.6332,0.6331,0.6328,0.6316,0.6313,0.6313,0.6298,0.6295,0.6299,0.6297,0.6282,0.6281,0.628,0.6297,0.6272,0.6272,0.6272,0.63,0.6301,0.6302,0,0,0,0,0,0,0.6343,0.6342,0.6333,0.6334,0.6333,0.6316,0.6316,0.6313,0.6311,0.6296,0.6293,0.6301,0.6282,0.628,0.6286,0.6296,0.6272,0.6272,0.6299,0.63,0.6302,0.6331,0,0,0,0,0,0,0.6343,0.6342,0.6348,0.6335,0.6333,0.6338,0.6317,0.6313,0.6311,0.6309,0.6296,0.6294,0.6281,0.6286,0.6286,0.6295,0.6272,0.6298,0.63,0.6301,0.6329,0.6333,0.6336,0,0,0,0,0,0.6344,0.6356,0.6348,0.6348,0.6339,0.6339,0.6338,0.6323,0.6312,0.6318,0.6308,0.6294,0.6295,0.6287,0.6286,0.6296,0.6297,0.6299,0.6301,0.6327,0.6332,0.6336,0,0,0,0,0,0,0.6371,0.6354,0.6345,0.6354,0.6348,0.6334,0.634,0.6329,0.6325,0.6323,0.6305,0.6302,0.631,0.6304,0.6294,0.631,0.6294,0.6296,0.6314,0.6318,0.6322,0.6323,0.6271,0,0,0,0,0,0.6378,0.6379,0.6365,0.6374,0.6372,0.6357,0.6356,0.6345,0.6338,0.6336,0.6326,0.632,0.6319,0.6318,0.6316,0.6328,0.6325,0.6334,0.6338,0.6341,0.6343,0.6349,0.6353,0.6308,0.6308,0.6308,0,0,0.6392,0.6384,0.6385,0.6379,0.6373,0.6375,0.6355,0.6357,0.6358,0.6336,0.634,0.6333,0.6325,0.6334,0.6337,0.6328,0.6355,0.6344,0.6346,0.6346,0.6351,0.6356,0.636,0.6309,0.6309,0.6309,0,0,0.642,0.6413,0.642,0.6415,0.6407,0.6397,0.6399,0.6387,0.6381,0.6386,0.6369,0.637,0.6369,0.6364,0.6361,0.6387,0.6374,0.6387,0.6407,0.6413,0.6416,0.6419,0.6429,0.6433,0.6389,0.6389,0.6389,0,0.6438,0.6441,0.6425,0.6429,0.6427,0.6408,0.6415,0.641,0.6402,0.6401,0.6392,0.639,0.6383,0.639,0.6397,0.6395,0.6397,0.6388,0.6417,0.642,0.6423,0.6432,0.6435,0.6391,0.6391,0.639,0.639,0,0.6464,0.6466,0.6473,0.6466,0.6464,0.647,0.6456,0.6456,0.6446,0.6437,0.6442,0.6434,0.643,0.6431,0.6421,0.6437,0.6432,0.642,0.6404,0.6429,0.6437,0.644,0.6393,0.6393,0.6392,0.6392,0,0,0.6507,0.6492,0.6495,0.6492,0.6482,0.6483,0.6488,0.6484,0.6485,0.648,0.6484,0.6484,0.6473,0.647,0.6459,0.6465,0.6487,0.6452,0.6452,0.6459,0.6504,0.6513,0.6518,0.6478,0.6479,0.6479,0.6505,0,0.6532,0.654,0.6527,0.6538,0.6539,0.6521,0.6525,0.652,0.6512,0.6512,0.6504,0.6504,0.6489,0.6488,0.6492,0.6483,0.6496,0.6481,0.6482,0.6482,0.6484,0.6522,0.6531,0.6556,0.6508,0.6509,0.6509,0,0.6562,0.656,0.6571,0.656,0.656,0.6565,0.6561,0.6561,0.6555,0.6549,0.6546,0.6534,0.6538,0.6523,0.6528,0.6519,0.6518,0.6514,0.6515,0.6514,0.6497,0.6522,0.6563,0.6567,0.6514,0.6514,0.6513,0,0.6593,0.6592,0.6598,0.6596,0.6584,0.6588,0.6583,0.6575,0.6575,0.6571,0.6571,0.6568,0.6567,0.6565,0.6552,0.6542,0.656,0.6543,0.6555,0.6555,0.6559,0.6559,0.6601,0.6559,0.6559,0.6559,0.6559,0,0.6622,0.663,0.6612,0.6616,0.6624,0.6609,0.6617,0.6611,0.6604,0.6607,0.6591,0.6594,0.6577,0.6578,0.6568,0.6575,0.6574,0.6569,0.6567,0.6571,0.6571,0.657,0.6568,0.656,0.656,0.656,0.656,0,0.6657,0.6646,0.6652,0.664,0.6638,0.6644,0.6634,0.6638,0.6629,0.6633,0.6633,0.6619,0.662,0.6607,0.6605,0.6598,0.6609,0.6603,0.6611,0.661,0.6622,0.6621,0.6664,0.6669,0.6625,0.6625,0.6626,0,0.6677,0.6682,0.6672,0.6672,0.6668,0.667,0.6669,0.6655,0.6655,0.6648,0.6652,0.6651,0.665,0.6652,0.6642,0.664,0.6634,0.6649,0.6634,0.6638,0.6634,0.6634,0.6635,0.6653,0.6653,0.6654,0.6654,0,0.6712,0.6707,0.6706,0.6704,0.6704,0.6701,0.6698,0.6699,0.6684,0.6684,0.6685,0.6684,0.6682,0.6681,0.6678,0.6673,0.6661,0.6659,0.6662,0.6666,0.667,0.6668,0.662,0.6658,0.6658,0.6657,0.6657,0.6657,0.674,0.6744,0.6738,0.6738,0.6734,0.6731,0.6734,0.6726,0.6726,0.6724,0.6716,0.6718,0.6712,0.6706,0.6702,0.6704,0.6696,0.67,0.6701,0.6702,0.6704,0.667,0.6703,0.6703,0.6703,0.6703,0.6703,0,0.6775,0.677,0.6771,0.6766,0.6767,0.6756,0.6752,0.6753,0.6755,0.675,0.6749,0.675,0.675,0.674,0.6739,0.6742,0.6736,0.6742,0.6742,0.6741,0.6711,0.6709,0.6747,0.6747,0.6747,0.6747,0.6747,0.6747,0.6793,0.68,0.6794,0.6798,0.6793,0.6795,0.6794,0.6791,0.6787,0.6789,0.6789,0.6783,0.6777,0.6775,0.6774,0.6771,0.6772,0.6779,0.6775,0.6747,0.6743,0.6739,0.6737,0.6779,0.6779,0.6804,0.6804,0.6804]}]]